User: anonymous   Login
Location: Sundre
(51.7972°N, 114.6405°W)
Time: 05:23:33
(UTC-07:00)
Language:

Oscar 19 - Orbit

View from above orbital plane
View from above orbital plane
View from above satellite
View from above satellite

Ground track
Ground track

The orbit data is extracted from the following two-line orbital elements,

1 20442U 90005G   20020.85269165 -.00000027  00000-0  63686-5 0  9996
2 20442  98.6750 327.7466 0010854 229.4370 130.5870 14.32942943567338
Epoch (UTC): 20 January 2020 20:27:52
Eccentricity: 0.0010854
inclination: 98.6750°
perigee height: 774 km
apogee height: 789 km
right ascension of ascending node: 327.7466°
argument of perigee: 229.4370°
revolutions per day: 14.32942943
mean anomaly at epoch: 130.5870°
orbit number at epoch: 56733

The dashed part of the orbit path shows where the satellite is in the earth's shadow,  

DLR